Lid_Strength_Index
3 4 3 3 4 4 4 4 3 1 1 1 1 1 1 1 2 4 5 3 5 7 6 5 5 8 8 8 11 8 9 8 9 12 13 13 14 13 13 12 14 14 15 15 13 16 18 8 8 12 10 7 7 7
4 4 4 3 3 4 4 4 4 4 1 1 1 1 1 1 2 3 6 3 2 6 6 4 4 3 4 4 7 6 8 8 8 10 10 11 13 12 14 16 10 14 12 14 13 14 8 7 8 6 6 7 7 6
4 4 4 4 3 4 4 4 4 4 3 1 1 1 1 2 2 3 7 5 4 6 6 6 5 3 3 4 5 7 6 5 6 5 8 11 12 11 14 13 12 10 9 11 12 9 8 7 6 5 5 6 5 5
4 4 4 4 4 3 4 4 4 4 4 3 1 1 1 2 2 3 7 5 4 6 9 7 3 4 2 3 3 5 4 4 5 6 9 11 12 10 12 11 11 9 9 10 11 9 8 7 8 7 6 6 6 4
4 4 4 4 4 3 3 4 4 4 4 4 2 2 1 3 2 4 6 4 4 6 9 8 5 4 4 4 4 4 6 7 8 9 9 10 10 10 9 9 11 8 10 11 12 9 9 8 7 6 7 7 6 6
4 4 4 4 4 4 3 4 4 4 4 4 4 3 3 3 2 5 7 5 5 5 7 10 6 5 4 5 5 5 6 7 8 9 9 8 6 9 11 12 9 8 8 8 10 9 9 8 8 7 7 6 5 5
3 4 4 4 4 4 4 4 4 4 5 5 5 5 5 4 5 6 7 6 4 5 7 9 9 6 5 5 6 6 6 6 7 9 8 9 9 9 11 12 9 8 7 7 8 8 9 8 9 7 6 5 4 5
3 4 4 4 4 5 5 5 5 5 5 5 5 5 5 3 4 5 5 4 5 7 6 10 9 8 6 8 8 6 8 7 7 9 8 9 8 9 12 10 8 8 8 8 8 8 8 8 7 7 6 5 5 5
4 3 3 4 5 5 5 5 5 5 6 5 5 5 7 6 6 4 1 3 6 7 8 8 11 12 6 8 7 7 7 10 7 9 9 9 11 13 9 9 8 8 9 9 8 7 8 8 8 7 7 6 5 5
4 4 3 4 4 5 5 5 6 6 6 6 7 7 8 5 2 1 4 8 8 8 8 9 7 9 7 9 9 9 9 10 12 9 8 12 11 8 8 7 7 7 6 7 10 10 9 9 8 8 7 6 5 4
4 4 4 4 4 5 5 5 6 6 6 7 7 7 6 4 6 5 7 8 9 10 7 7 7 9 7 9 10 8 10 10 15 11 11 12 13 9 7 7 6 6 6 7 7 8 9 9 8 8 7 6 6 5
4 4 4 4 4 4 5 5 6 7 6 7 7 6 6 7 8 9 10 9 11 11 8 8 7 7 7 7 9 9 11 10 14 9 11 13 10 8 7 6 6 5 5 5 5 6 7 6 7 6 6 7 6 6
4 4 4 4 4 4 4 5 5 6 6 6 8 8 8 8 12 12 13 12 11 8 7 7 9 7 7 7 9 9 11 12 8 11 12 11 9 7 7 5 6 5 5 5 5 5 6 6 5 6 5 5 5 6
4 4 4 4 4 4 5 5 5 6 7 8 8 13 11 11 10 10 10 9 7 7 7 7 8 7 7 9 9 12 9 9 12 13 13 10 9 8 7 5 5 5 5 5 5 5 5 5 6 5 5 6 6 7
4 4 4 4 4 4 4 5 5 6 7 9 8 12 10 8 7 7 6 7 6 5 7 8 8 7 9 9 9 10 11 12 12 13 10 9 8 7 7 7 7 6 5 5 5 5 5 5 6 6 5 5 6 6
4 4 4 4 4 4 5 5 6 6 7 9 9 10 8 9 8 8 7 7 5 6 6 7 9 10 10 9 11 11 12 13 11 9 8 7 7 7 7 7 6 6 6 5 5 5 5 5 6 6 5 5 5 5
4 4 3 4 5 5 5 6 6 8 9 9 9 8 8 8 8 7 6 6 4 7 9 9 11 11 9 11 11 10 11 10 8 7 6 7 6 7 6 6 6 6 6 7 7 5 5 4 5 6 6 6 5 5
4 2 4 5 5 6 6 7 7 8 9 9 10 9 7 7 7 6 6 5 6 7 7 9 7 10 11 11 11 9 8 8 6 6 6 6 5 5 4 5 5 5 6 6 6 7 6 5 5 5 5 5 5 5
4 3 5 5 5 5 7 7 7 10 8 8 7 7 7 7 5 4 5 4 4 4 6 8 10 11 11 9 8 8 7 6 6 6 5 5 5 5 4 5 4 5 6 6 6 6 7 5 4 4 4 5 4 5
5 4 4 5 5 6 7 7 6 8 9 7 7 8 7 6 5 5 5 5 5 6 8 9 9 8 8 7 6 6 6 5 5 6 6 5 4 5 4 5 5 5 5 5 5 5 6 8 6 5 6 5 5 5
4 4 5 5 6 6 6 6 7 7 7 8 7 7 7 6 7 7 7 5 7 8 9 7 7 6 5 5 5 6 6 5 5 5 5 6 4 4 5 4 4 5 5 6 6 5 7 8 7 7 7 7 6 6
4 4 6 5 6 6 7 6 7 6 8 8 8 7 8 8 8 8 6 8 8 7 6 6 6 6 7 7 6 5 5 7 7 5 5 5 5 5 5 5 5 6 6 7 8 8 8 8 8 8 7 8 7 7
4 4 5 5 6 9 10 5 8 7 9 8 7 8 8 8 7 5 8 7 7 5 5 5 5 6 6 5 5 5 5 5 6 7 7 7 6 5 5 5 5 7 8 9 8 7 8 8 8 8 8 7 8 7
4 5 6 7 7 10 6 8 7 8 7 9 9 9 9 8 6 8 10 8 6 5 6 6 6 6 5 5 6 6 5 5 5 5 5 7 6 7 6 6 7 7 8 8 7 8 8 7 7 8 8 8 8 8
9 9 8 12 6 8 9 9 9 9 10 9 9 9 9 7 10 10 10 8 7 6 6 6 6 6 7 7 7 6 5 5 6 6 5 6 7 7 8 7 8 8 8 8 8 8 8 7 8 8 8 8 8 8
11 7 10 8 8 9 9 10 10 10 9 9 9 8 7 9 10 11 9 7 6 6 5 5 5 6 6 6 7 6 4 4 4 5 4 4 7 7 8 8 9 8 8 8 8 7 7 8 8 8 8 7 8 8
11 9 7 6 6 7 8 7 7 8 9 10 9 9 9 11 11 9 6 5 5 4 3 3 4 4 5 5 4 4 4 4 4 5 6 7 7 7 7 8 8 8 8 8 8 7 8 8 8 8 8 8 7 7
7 7 10 8 8 7 9 9 9 10 9 7 8 10 10 10 10 7 5 4 4 4 3 4 4 4 4 4 4 4 5 6 7 8 8 8 8 8 8 9 8 8 8 7 7 8 8 8 8 8 8 8 8 7
7 6 7 9 8 8 8 9 8 7 6 7 8 9 8 6 4 4 3 3 3 4 5 6 4 3 4 4 4 5 6 7 8 9 9 10 9 9 9 9 9 9 9 9 9 8 8 8 8 9 8 8 8 7
7 6 8 8 9 9 8 6 6 5 4 5 5 6 5 5 3 2 3 3 3 4 4 4 3 4 4 5 5 7 7 7 7 7 8 7 7 7 8 8 8 8 8 9 9 9 9 9 9 9 9 8 8 8
6 6 7 7 8 7 5 5 4 4 4 5 5 6 6 5 4 3 3 3 3 4 3 4 3 3 3 6 7 7 8 8 7 6 6 8 8 7 7 8 8 8 8 8 8 8 9 9 9 9 8 7 7 7
6 7 8 9 8 5 5 6 6 6 6 6 6 5 5 6 7 4 3 4 4 4 4 4 4 3 3 4 4 5 7 6 7 7 7 7 7 7 7 7 8 7 7 7 7 7 7 8 9 8 7 7 7 6
7 7 7 7 8 8 6 7 7 8 7 7 7 6 6 6 8 5 3 3 4 3 3 4 4 4 4 5 5 6 7 7 8 10 10 9 9 9 8 7 7 7 7 7 7 6 7 8 8 7 7 6 6 6